[[{"header":{"parameterUnit":"m.s-1","parameterCategory":2,"la1":30.2991,"la2":30.254,"lo1":-89.0895,"lo2":-89.0444,"dx":0.0017,"dy":0.0017,"nx":28,"ny":28,"refTime":"2022-11-05T21:00:00:Z","depth":"0","parameterNumber":2,"parameterNumberName":"U-component_of_CURRENTS"},"data":[0,0,0,0,0,0,0,0,0,0,0,0,0,0,0,0,0,0,0,0,0,0,0,0,0,0,0,0,0,0,0,0,0,0,0,0,0,0,0,0,0,0,0,0,0,0,0,0,0,0,0,0,0,0,0,0,0,0,-0.2132,-0.2132,0,-0.2119,-0.2119,-0.2118,-0.2072,-0.2071,-0.2071,-0.207,-0.2009,-0.2008,-0.2007,0,0,0,0,0,0,0,0,0,0,0,0,0,-0.2077,-0.2078,-0.2132,-0.2132,-0.2132,-0.2119,-0.2119,-0.2118,-0.2072,-0.2071,-0.207,-0.2069,-0.2009,-0.2008,-0.2007,0,0,0,0,0,0,0,0,0,0,0,0,0,-0.2083,-0.2079,-0.2132,-0.211,-0.2108,-0.2119,-0.2119,-0.2118,-0.2072,-0.2071,-0.207,-0.2069,-0.201,-0.2008,-0.2007,-0.2021,0,0,-0.2003,-0.2002,0,0,0,0,0,0,0,0,-0.2083,-0.2085,-0.2113,-0.2112,-0.211,-0.2099,-0.2077,-0.2084,-0.2073,-0.2083,-0.207,-0.2068,-0.2037,-0.2034,-0.203,-0.2018,-0.2016,-0.2003,-0.2002,-0.2001,-0.2001,0,0,0,0,0,0,0,-0.2083,-0.2085,-0.2124,-0.2114,-0.2111,-0.2087,-0.2087,-0.2078,-0.2063,-0.2082,-0.2079,-0.2083,-0.2035,-0.2031,-0.2028,-0.2015,-0.2003,-0.2001,-0.2001,-0.2,-0.2055,-0.2057,0,0,0,0,0,0,-0.2095,-0.2085,-0.2124,-0.2124,-0.2097,-0.209,-0.2089,-0.2101,-0.2064,-0.2059,-0.2084,-0.2081,-0.2034,-0.203,-0.2026,-0.2083,-0.2001,-0.2,-0.1999,-0.2053,-0.2055,-0.2058,0,0,0,0,0,0,-0.2094,-0.2099,-0.2125,-0.2106,-0.2108,-0.2093,-0.2106,-0.2101,-0.2094,-0.2067,-0.206,-0.2081,-0.2033,-0.2028,-0.2031,-0.2078,-0.1999,-0.1998,-0.205,-0.2053,-0.2057,-0.2169,0,0,0,0,0,0,-0.2092,-0.2098,-0.2112,-0.2107,-0.211,-0.2152,-0.2107,-0.2102,-0.21,-0.2095,-0.2062,-0.2056,-0.2032,-0.2034,-0.203,-0.2075,-0.1997,-0.2047,-0.2051,-0.2056,-0.2163,-0.2176,-0.2188,0,0,0,0,0,-0.209,-0.212,-0.2113,-0.2118,-0.2129,-0.2154,-0.2154,-0.2135,-0.2101,-0.2118,-0.2091,-0.2056,-0.2059,-0.2034,-0.2029,-0.2075,-0.2045,-0.205,-0.2055,-0.2157,-0.2174,-0.2187,0,0,0,0,0,0,-0.2108,-0.2118,-0.211,-0.2142,-0.2156,-0.2148,-0.2157,-0.214,-0.213,-0.2113,-0.2077,-0.2071,-0.2095,-0.207,-0.2044,-0.2105,-0.205,-0.2054,-0.2129,-0.2144,-0.2157,-0.2129,-0.1996,0,0,0,0,0,-0.2119,-0.2134,-0.2149,-0.2171,-0.2181,-0.2166,-0.2171,-0.2158,-0.2149,-0.2142,-0.2124,-0.2108,-0.2115,-0.2115,-0.2112,-0.2139,-0.2071,-0.2168,-0.2181,-0.2192,-0.2167,-0.2142,-0.2149,-0.2075,-0.2075,-0.2075,0,0,-0.2128,-0.2136,-0.2144,-0.2174,-0.2173,-0.2199,-0.2165,-0.2177,-0.2196,-0.2138,-0.2155,-0.2146,-0.2131,-0.2168,-0.2177,-0.2151,-0.2174,-0.2198,-0.2207,-0.2176,-0.2147,-0.2154,-0.216,-0.2078,-0.2078,-0.2077,0,0,-0.2146,-0.2166,-0.218,-0.22,-0.2213,-0.222,-0.2227,-0.223,-0.2232,-0.2252,-0.2223,-0.2243,-0.224,-0.2254,-0.2255,-0.2334,-0.224,-0.2338,-0.2379,-0.2356,-0.2361,-0.2365,-0.2264,-0.2258,-0.2347,-0.2347,-0.2347,0,-0.2154,-0.218,-0.2191,-0.2213,-0.2232,-0.2232,-0.2258,-0.2275,-0.2278,-0.2279,-0.227,-0.2271,-0.2285,-0.2314,-0.236,-0.2363,-0.2293,-0.2325,-0.237,-0.2372,-0.2374,-0.227,-0.2262,-0.2353,-0.2352,-0.2352,-0.2351,0,-0.2169,-0.2207,-0.2222,-0.2251,-0.2278,-0.2306,-0.2335,-0.2355,-0.2355,-0.2356,-0.2377,-0.2389,-0.2381,-0.2419,-0.2418,-0.245,-0.2375,-0.2387,-0.2326,-0.2388,-0.2275,-0.2264,-0.2362,-0.236,-0.2358,-0.2356,0,0,-0.2137,-0.2219,-0.2221,-0.2237,-0.2301,-0.2307,-0.237,-0.2407,-0.2384,-0.2433,-0.2404,-0.2496,-0.2471,-0.2472,-0.2479,-0.2483,-0.2469,-0.2446,-0.2442,-0.2332,-0.2341,-0.225,-0.2228,-0.248,-0.2479,-0.2479,-0.2247,0,-0.2142,-0.2192,-0.224,-0.2283,-0.2311,-0.2355,-0.2389,-0.2417,-0.2426,-0.2401,-0.2443,-0.2422,-0.2502,-0.2475,-0.2511,-0.2462,-0.2447,-0.2524,-0.2306,-0.2298,-0.2202,-0.2217,-0.2118,-0.1901,-0.2236,-0.2234,-0.2232,0,-0.2126,-0.2165,-0.2218,-0.2273,-0.2283,-0.2308,-0.2319,-0.235,-0.2357,-0.2354,-0.2371,-0.2359,-0.2395,-0.2429,-0.2403,-0.2438,-0.2401,-0.2368,-0.2359,-0.222,-0.2189,-0.19,-0.1867,-0.1867,-0.2214,-0.2216,-0.2217,0,-0.2049,-0.2139,-0.2176,-0.2201,-0.2269,-0.2281,-0.2306,-0.2322,-0.2305,-0.2299,-0.2248,-0.229,-0.2258,-0.2266,-0.2264,-0.2312,-0.2167,-0.2223,-0.2093,-0.2082,-0.1924,-0.1902,-0.1853,-0.218,-0.218,-0.2181,-0.2182,0,-0.2024,-0.204,-0.2135,-0.214,-0.2124,-0.2205,-0.2161,-0.2186,-0.2179,-0.213,-0.2201,-0.2146,-0.2218,-0.2163,-0.2182,-0.2082,-0.2111,-0.2066,-0.2025,-0.1959,-0.1944,-0.1878,-0.1914,-0.2172,-0.2174,-0.2176,-0.2177,0,-0.1909,-0.1999,-0.2007,-0.2076,-0.2082,-0.2051,-0.2058,-0.2025,-0.2047,-0.1974,-0.1968,-0.2001,-0.1949,-0.1962,-0.1918,-0.1938,-0.1823,-0.1827,-0.1708,-0.1659,-0.1568,-0.1614,-0.1459,-0.1426,-0.163,-0.1627,-0.1624,0,-0.1852,-0.1858,-0.1899,-0.1889,-0.1913,-0.1896,-0.1881,-0.1932,-0.1908,-0.1885,-0.1838,-0.1781,-0.1733,-0.1613,-0.1612,-0.154,-0.1629,-0.1423,-0.1543,-0.152,-0.154,-0.1591,-0.1581,-0.1354,-0.1349,-0.1345,-0.1342,0,-0.1714,-0.1731,-0.1737,-0.1717,-0.1707,-0.1683,-0.1683,-0.1646,-0.1703,-0.166,-0.1603,-0.1556,-0.1455,-0.1361,-0.1285,-0.1268,-0.1387,-0.1337,-0.1359,-0.1346,-0.1348,-0.131,-0.1507,-0.1306,-0.1309,-0.1312,-0.1314,-0.1315,-0.1578,-0.1541,-0.1559,-0.1523,-0.1515,-0.1483,-0.142,-0.1448,-0.1393,-0.1336,-0.1381,-0.1269,-0.1211,-0.1096,-0.1065,-0.0989,-0.1095,-0.1009,-0.106,-0.1108,-0.111,-0.1195,-0.0946,-0.0948,-0.0949,-0.095,-0.0951,0,-0.1415,-0.1407,-0.1372,-0.1338,-0.1282,-0.1328,-0.1292,-0.1229,-0.115,-0.1123,-0.107,-0.0947,-0.0867,-0.0842,-0.0781,-0.0745,-0.0778,-0.0755,-0.0828,-0.0832,-0.0916,-0.0942,-0.0627,-0.0627,-0.0627,-0.0627,-0.0627,-0.0627,-0.1332,-0.1264,-0.1261,-0.1131,-0.1105,-0.0996,-0.0956,-0.0892,-0.0839,-0.0705,-0.0617,-0.0573,-0.0609,-0.0694,-0.0676,-0.0652,-0.0698,-0.0636,-0.0714,-0.0817,-0.0847,-0.0876,-0.0911,-0.0593,-0.0593,-0.0589,-0.0589,-0.0589]},{"header":{"parameterUnit":"m.s-1","parameterCategory":2,"la1":30.2991,"la2":30.254,"lo1":-89.0895,"lo2":-89.0444,"dx":0.0017,"dy":0.0017,"nx":28,"ny":28,"refTime":"2022-11-05T21:00:00:Z","depth":"0","parameterNumber":3,"parameterNumberName":"V-component_of_CURRENTS"},"data":[0,0,0,0,0,0,0,0,0,0,0,0,0,0,0,0,0,0,0,0,0,0,0,0,0,0,0,0,0,0,0,0,0,0,0,0,0,0,0,0,0,0,0,0,0,0,0,0,0,0,0,0,0,0,0,0,0,0,-0.0242,-0.024,0,-0.0091,-0.0089,-0.0087,-0.0021,-0.0022,-0.0022,-0.0022,0.0154,0.0159,0.0163,0,0,0,0,0,0,0,0,0,0,0,0,0,-0.0366,-0.0365,-0.0242,-0.024,-0.0238,-0.0091,-0.0089,-0.0087,-0.0021,-0.0022,-0.0022,-0.0022,0.0152,0.0158,0.0164,0,0,0,0,0,0,0,0,0,0,0,0,0,-0.0274,-0.0364,-0.0242,-0.0188,-0.0182,-0.0092,-0.0089,-0.0086,-0.0021,-0.0022,-0.0022,-0.0022,0.015,0.0157,0.0165,0.0217,0,0,0.0187,0.019,0,0,0,0,0,0,0,0,-0.0279,-0.0269,-0.0198,-0.0191,-0.0184,-0.0075,-0.0068,0.0016,-0.0021,-0.0082,-0.0022,-0.0023,0.008,0.0093,0.0122,0.0225,0.0233,0.0188,0.0192,0.0195,0.0197,0,0,0,0,0,0,0,-0.0286,-0.0275,-0.0182,-0.0196,-0.0187,-0.0134,-0.0122,-0.0051,-0.0001,-0.0077,-0.0072,-0.0055,0.0083,0.0114,0.0126,0.0235,0.0188,0.0194,0.0199,0.0201,0.0397,0.0398,0,0,0,0,0,0,-0.031,-0.0281,-0.0187,-0.0178,-0.0234,-0.0132,-0.0119,-0.011,-0.0002,0.0014,-0.0055,-0.0052,0.0102,0.0118,0.0133,0.0182,0.0195,0.0202,0.0206,0.0396,0.0397,0.0398,0,0,0,0,0,0,-0.0313,-0.0303,-0.0193,-0.0225,-0.0208,-0.013,-0.012,-0.0107,-0.0077,0.0015,0.0031,-0.0039,0.0102,0.0123,0.0194,0.019,0.0206,0.0212,0.0395,0.0397,0.0398,0.0292,0,0,0,0,0,0,-0.0317,-0.0305,-0.0304,-0.0228,-0.0207,-0.0146,-0.0119,-0.0104,-0.0066,-0.0061,0.0034,0.005,0.0104,0.0182,0.0201,0.02,0.0218,0.0394,0.0396,0.0397,0.0295,0.029,0.0285,0,0,0,0,0,-0.0322,-0.032,-0.0306,-0.0294,-0.021,-0.0146,-0.0131,-0.0076,-0.0065,-0.0051,0.0012,0.0047,0.0205,0.0189,0.0211,0.0212,0.0394,0.0395,0.0397,0.0297,0.0291,0.0286,0,0,0,0,0,0,-0.0374,-0.031,-0.0294,-0.0273,-0.0219,-0.0135,-0.0115,-0.008,-0.0018,-0.0018,0.0062,0.0083,0.0145,0.02,0.018,0.0275,0.0304,0.031,0.022,0.0215,0.0211,0.0185,0.0224,0,0,0,0,0,-0.0387,-0.0368,-0.03,-0.0284,-0.0262,-0.0192,-0.0159,-0.0124,-0.006,-0.0034,0.0035,0.0107,0.0172,0.0207,0.0278,0.0332,0.0359,0.0348,0.0343,0.0339,0.0335,0.0345,0.0339,0.0404,0.0404,0.0404,0,0,-0.0402,-0.0365,-0.0354,-0.0294,-0.0249,-0.0223,-0.0173,-0.0131,-0.0109,-0.0023,0.003,0.0098,0.0185,0.0242,0.0274,0.0284,0.034,0.0341,0.0336,0.0335,0.0346,0.0339,0.0333,0.0405,0.0405,0.0405,0,0,-0.0425,-0.0393,-0.0387,-0.035,-0.0291,-0.0245,-0.0239,-0.016,-0.0125,-0.0063,-0.0002,0.0059,0.0169,0.0221,0.0262,0.0278,0.0317,0.0305,0.0256,0.0265,0.0259,0.0253,0.0289,0.0287,0.0297,0.0297,0.0297,0,-0.0448,-0.0436,-0.0375,-0.0364,-0.0342,-0.0265,-0.0261,-0.0208,-0.0116,-0.0093,-0.0061,0.0078,0.0156,0.0207,0.0219,0.0264,0.0282,0.0261,0.0253,0.0249,0.0245,0.0283,0.0283,0.0292,0.0293,0.0293,0.0294,0,-0.0465,-0.0461,-0.0455,-0.0421,-0.0386,-0.0368,-0.0298,-0.026,-0.021,-0.0159,-0.0091,0.0012,0.0086,0.0124,0.0183,0.0201,0.0227,0.0242,0.0252,0.0231,0.0274,0.0275,0.0285,0.0287,0.0289,0.029,0,0,-0.0504,-0.0477,-0.0475,-0.048,-0.0421,-0.0394,-0.0364,-0.0313,-0.0297,-0.0211,-0.0188,-0.007,-0.0023,0.0028,0.0101,0.0125,0.0132,0.0168,0.0171,0.0177,0.0162,0.0209,0.0216,0.0128,0.0128,0.0127,0.0205,0,-0.054,-0.0554,-0.0519,-0.0528,-0.0531,-0.0468,-0.0444,-0.0389,-0.0327,-0.028,-0.0193,-0.013,-0.0059,-0.0023,0.0006,0.0112,0.013,0.0111,0.0207,0.021,0.0231,0.0217,0.0247,0.032,0.0207,0.0207,0.0207,0,-0.0567,-0.0576,-0.0603,-0.0595,-0.0588,-0.0578,-0.0537,-0.0504,-0.0427,-0.0381,-0.0326,-0.0244,-0.0169,-0.0116,0.0002,-0.0018,0.0059,0.0131,0.0135,0.0215,0.0259,0.0326,0.0328,0.0419,0.021,0.021,0.021,0,-0.0623,-0.0629,-0.066,-0.0657,-0.0631,-0.0631,-0.0609,-0.0542,-0.0507,-0.0449,-0.0414,-0.0334,-0.0262,-0.0187,-0.0015,-0.0019,0.0113,0.0123,0.0233,0.0238,0.0304,0.0316,0.0383,0.0174,0.0174,0.0174,0.0174,0,-0.0673,-0.0692,-0.0694,-0.0709,-0.0728,-0.0693,-0.0688,-0.0652,-0.0594,-0.055,-0.0475,-0.0411,-0.0278,-0.0168,-0.0054,0.0108,0.0076,0.0225,0.0254,0.0273,0.0281,0.0398,0.043,0.0177,0.0176,0.0176,0.0175,0,-0.0717,-0.0725,-0.0755,-0.0757,-0.0755,-0.0766,-0.0728,-0.0716,-0.0666,-0.0609,-0.0591,-0.0459,-0.0314,-0.0171,-0.0006,0.0085,0.0277,0.0276,0.0307,0.0338,0.0508,0.0534,0.0624,0.0679,0.0391,0.0392,0.0393,0,-0.0736,-0.0763,-0.0786,-0.0799,-0.08,-0.0805,-0.0798,-0.0754,-0.0726,-0.0617,-0.0587,-0.044,-0.0302,-0.0053,0.0121,0.0301,0.0364,0.0425,0.042,0.0522,0.0571,0.0571,0.0611,0.0477,0.0479,0.0481,0.0482,0,-0.0765,-0.0778,-0.0801,-0.0831,-0.0842,-0.0845,-0.0831,-0.0812,-0.0743,-0.0679,-0.0549,-0.0434,-0.0181,0.0059,0.0282,0.0382,0.0483,0.0462,0.055,0.063,0.0651,0.0717,0.044,0.0495,0.0494,0.0493,0.0492,0.0492,-0.077,-0.0795,-0.0826,-0.0848,-0.0864,-0.0866,-0.0849,-0.0806,-0.0743,-0.057,-0.0483,-0.0189,0.0019,0.035,0.0454,0.067,0.0621,0.0729,0.075,0.0739,0.0791,0.0556,0.065,0.065,0.0649,0.0649,0.0648,0,-0.0767,-0.0799,-0.083,-0.0859,-0.0874,-0.0878,-0.0848,-0.0793,-0.0694,-0.044,-0.0258,0.022,0.0422,0.0641,0.0861,0.0959,0.0959,0.0994,0.0999,0.1025,0.0812,0.0815,0.0969,0.0969,0.0969,0.0969,0.0969,0.0969,-0.0766,-0.0801,-0.0824,-0.085,-0.0865,-0.0849,-0.0821,-0.0715,-0.0516,-0.0073,0.0366,0.067,0.0909,0.1027,0.1189,0.1201,0.1284,0.1252,0.1299,0.1156,0.1132,0.1109,0.1121,0.1336,0.1336,0.1505,0.1506,0.1508]}],[{"header":{"parameterUnit":"m.s-1","parameterCategory":2,"la1":30.2991,"la2":30.254,"lo1":-89.0895,"lo2":-89.0444,"dx":0.0017,"dy":0.0017,"nx":28,"ny":28,"refTime":"2022-11-05T21:00:00:Z","depth":"2","parameterNumber":2,"parameterNumberName":"U-component_of_CURRENTS"},"data":[0,0,0,0,0,0,0,0,0,0,0,0,0,0,0,0,0,0,0,0,0,0,0,0,0,0,0,0,0,0,0,0,0,0,0,0,0,0,0,0,0,0,0,0,0,0,0,0,0,0,0,0,0,0,0,0,0,0,-0.1727,-0.1726,0,-0.1703,-0.1703,-0.1703,-0.17,-0.17,-0.1701,-0.1701,-0.1672,-0.1671,-0.167,0,0,0,0,0,0,0,0,0,0,0,0,0,-0.1693,-0.1694,-0.1727,-0.1726,-0.1726,-0.1703,-0.1703,-0.1703,-0.17,-0.17,-0.1701,-0.1701,-0.1672,-0.1671,-0.167,0,0,0,0,0,0,0,0,0,0,0,0,0,-0.1693,-0.1695,-0.1727,-0.1722,-0.1721,-0.1703,-0.1703,-0.1703,-0.17,-0.17,-0.1701,-0.1701,-0.1673,-0.1671,-0.167,-0.1656,0,0,-0.1666,-0.1665,0,0,0,0,0,0,0,0,-0.1693,-0.1695,-0.1723,-0.1722,-0.1721,-0.1704,-0.168,-0.1686,-0.17,-0.1709,-0.1701,-0.1701,-0.1682,-0.168,-0.1676,-0.1654,-0.1653,-0.1666,-0.1665,-0.1664,-0.1664,0,0,0,0,0,0,0,-0.1693,-0.1695,-0.1718,-0.1722,-0.1721,-0.1694,-0.1695,-0.1681,-0.1694,-0.1708,-0.1708,-0.1704,-0.1681,-0.1677,-0.1675,-0.1653,-0.1666,-0.1664,-0.1663,-0.1663,-0.1685,-0.1686,0,0,0,0,0,0,-0.1699,-0.1696,-0.1719,-0.1717,-0.1707,-0.1695,-0.1696,-0.171,-0.1695,-0.1692,-0.1704,-0.1704,-0.1679,-0.1676,-0.1674,-0.1716,-0.1664,-0.1663,-0.1662,-0.1684,-0.1685,-0.1687,0,0,0,0,0,0,-0.1699,-0.1702,-0.172,-0.1704,-0.1704,-0.1696,-0.1711,-0.1709,-0.1712,-0.1691,-0.1689,-0.1708,-0.1679,-0.1676,-0.1681,-0.1713,-0.1662,-0.1661,-0.1682,-0.1684,-0.1686,-0.1763,0,0,0,0,0,0,-0.1698,-0.1703,-0.171,-0.1705,-0.1705,-0.1726,-0.171,-0.1709,-0.1708,-0.1709,-0.1694,-0.1692,-0.1679,-0.1684,-0.168,-0.171,-0.166,-0.168,-0.1683,-0.1686,-0.1759,-0.1767,-0.1775,0,0,0,0,0,-0.1697,-0.1709,-0.1711,-0.1713,-0.1719,-0.1726,-0.1725,-0.1718,-0.1708,-0.1719,-0.1712,-0.1692,-0.1699,-0.1684,-0.1679,-0.1709,-0.1679,-0.1682,-0.1685,-0.1755,-0.1766,-0.1775,0,0,0,0,0,0,-0.1707,-0.171,-0.1712,-0.1727,-0.1734,-0.1726,-0.1727,-0.1722,-0.1723,-0.172,-0.1703,-0.17,-0.172,-0.1702,-0.1685,-0.1725,-0.1688,-0.1691,-0.1743,-0.1753,-0.1761,-0.175,-0.1659,0,0,0,0,0,-0.171,-0.1719,-0.1723,-0.1739,-0.174,-0.1734,-0.1733,-0.1732,-0.1731,-0.1731,-0.1726,-0.1721,-0.1727,-0.173,-0.1727,-0.174,-0.1697,-0.176,-0.1768,-0.1775,-0.1765,-0.1752,-0.1758,-0.1698,-0.1698,-0.1697,0,0,-0.174,-0.1721,-0.1743,-0.174,-0.174,-0.1752,-0.1735,-0.1741,-0.1756,-0.1727,-0.1747,-0.1745,-0.1737,-0.1762,-0.1769,-0.1752,-0.1765,-0.1779,-0.1786,-0.177,-0.1756,-0.1761,-0.1766,-0.17,-0.1699,-0.1699,0,0,-0.1753,-0.1766,-0.1765,-0.1771,-0.1759,-0.1764,-0.177,-0.1772,-0.1779,-0.1793,-0.1787,-0.18,-0.1802,-0.1811,-0.1812,-0.1859,-0.1808,-0.187,-0.1904,-0.1893,-0.1897,-0.19,-0.1829,-0.1825,-0.1877,-0.1877,-0.1877,0,-0.1769,-0.1773,-0.1771,-0.1757,-0.1769,-0.1774,-0.1788,-0.1799,-0.1808,-0.1812,-0.1809,-0.1821,-0.1822,-0.1848,-0.1881,-0.1876,-0.1843,-0.1868,-0.1902,-0.1905,-0.1907,-0.1833,-0.1828,-0.1881,-0.188,-0.188,-0.188,0,-0.177,-0.1786,-0.1787,-0.1782,-0.1798,-0.1815,-0.1833,-0.1854,-0.1861,-0.1862,-0.1884,-0.1886,-0.1887,-0.1911,-0.1914,-0.1944,-0.1904,-0.1913,-0.1875,-0.1918,-0.1837,-0.183,-0.1887,-0.1885,-0.1884,-0.1883,0,0,-0.1758,-0.1785,-0.1782,-0.179,-0.1814,-0.1821,-0.1868,-0.1893,-0.1894,-0.1921,-0.1916,-0.1964,-0.1952,-0.1953,-0.1962,-0.1972,-0.1966,-0.1962,-0.1959,-0.1884,-0.19,-0.1826,-0.1811,-0.1991,-0.1991,-0.1991,-0.1828,0,-0.1751,-0.1748,-0.1769,-0.1801,-0.1813,-0.1854,-0.1888,-0.1914,-0.1925,-0.1923,-0.194,-0.1935,-0.1972,-0.1967,-0.1991,-0.1969,-0.1956,-0.2006,-0.1874,-0.1868,-0.1794,-0.1804,-0.1685,-0.1527,-0.1821,-0.182,-0.1819,0,-0.1719,-0.1722,-0.1753,-0.1799,-0.1807,-0.1833,-0.1871,-0.1898,-0.1917,-0.1919,-0.1932,-0.1924,-0.1945,-0.196,-0.1941,-0.1974,-0.1943,-0.1924,-0.1917,-0.1815,-0.1784,-0.1538,-0.1503,-0.1807,-0.1808,-0.1809,-0.181,0,-0.1671,-0.1705,-0.173,-0.1749,-0.1804,-0.1827,-0.1858,-0.189,-0.1891,-0.1901,-0.1881,-0.1904,-0.1884,-0.1886,-0.1867,-0.1903,-0.1813,-0.1843,-0.1732,-0.1723,-0.1574,-0.1553,-0.181,-0.181,-0.1811,-0.1811,-0.1812,0,-0.1639,-0.1651,-0.1708,-0.1717,-0.1726,-0.1786,-0.1787,-0.182,-0.1838,-0.1815,-0.1862,-0.1833,-0.1874,-0.1834,-0.183,-0.1744,-0.1774,-0.1717,-0.1684,-0.1595,-0.1579,-0.1795,-0.1796,-0.1805,-0.1806,-0.1807,-0.1809,0,-0.1573,-0.1623,-0.1633,-0.169,-0.1701,-0.17,-0.1734,-0.1729,-0.1765,-0.1733,-0.1734,-0.1759,-0.1712,-0.1709,-0.1672,-0.1662,-0.1605,-0.1563,-0.1427,-0.1384,-0.1522,-0.1528,-0.1409,-0.1406,-0.1402,-0.14,-0.1398,0,-0.154,-0.1542,-0.158,-0.1577,-0.1598,-0.1611,-0.1616,-0.1675,-0.1668,-0.1677,-0.165,-0.1614,-0.156,-0.1463,-0.1431,-0.135,-0.1463,-0.1216,-0.128,-0.1504,-0.1485,-0.1497,-0.1507,-0.109,-0.1085,-0.1081,-0.1078,0,-0.1456,-0.1471,-0.1478,-0.147,-0.1475,-0.1473,-0.1492,-0.148,-0.1536,-0.1516,-0.1474,-0.1431,-0.134,-0.1213,-0.1137,-0.1103,-0.1229,-0.1136,-0.1389,-0.1232,-0.1196,-0.118,-0.1202,-0.1045,-0.1048,-0.1051,-0.1052,-0.1054,-0.1372,-0.135,-0.1357,-0.134,-0.1345,-0.1328,-0.129,-0.1317,-0.1288,-0.1245,-0.1277,-0.1175,-0.1145,-0.0956,-0.0889,-0.0858,-0.0961,-0.0952,-0.0966,-0.0984,-0.0998,-0.0962,-0.0764,-0.0766,-0.0768,-0.0769,-0.077,0,-0.1252,-0.1242,-0.1225,-0.1201,-0.1162,-0.1205,-0.119,-0.114,-0.1073,-0.1055,-0.0995,-0.085,-0.0745,-0.0731,-0.0611,-0.0593,-0.0623,-0.0591,-0.0633,-0.0664,-0.0693,-0.0697,-0.0381,-0.038,-0.0379,-0.0378,0,0,-0.1185,-0.1128,-0.1124,-0.1021,-0.1006,-0.0916,-0.0885,-0.0836,-0.0798,-0.0711,-0.0657,-0.0681,-0.0683,-0.0525,-0.0484,-0.0407,-0.0538,-0.0387,-0.0694,-0.0772,-0.08,-0.0887,-0.0927,0,0,0,0,0]},{"header":{"parameterUnit":"m.s-1","parameterCategory":2,"la1":30.2991,"la2":30.254,"lo1":-89.0895,"lo2":-89.0444,"dx":0.0017,"dy":0.0017,"nx":28,"ny":28,"refTime":"2022-11-05T21:00:00:Z","depth":"2","parameterNumber":3,"parameterNumberName":"V-component_of_CURRENTS"},"data":[0,0,0,0,0,0,0,0,0,0,0,0,0,0,0,0,0,0,0,0,0,0,0,0,0,0,0,0,0,0,0,0,0,0,0,0,0,0,0,0,0,0,0,0,0,0,0,0,0,0,0,0,0,0,0,0,0,0,-0.027,-0.0269,0,-0.0177,-0.0176,-0.0175,-0.0116,-0.0116,-0.0115,-0.0115,0.0021,0.0024,0.0027,0,0,0,0,0,0,0,0,0,0,0,0,0,-0.0326,-0.0326,-0.0271,-0.0269,-0.0268,-0.0178,-0.0176,-0.0175,-0.0116,-0.0116,-0.0115,-0.0115,0.002,0.0023,0.0027,0,0,0,0,0,0,0,0,0,0,0,0,0,-0.0275,-0.0326,-0.0271,-0.0228,-0.0224,-0.0178,-0.0176,-0.0175,-0.0116,-0.0116,-0.0115,-0.0115,0.0018,0.0023,0.0028,0.0049,0,0,0.0043,0.0045,0,0,0,0,0,0,0,0,-0.0278,-0.0273,-0.0236,-0.0231,-0.0226,-0.0158,-0.0146,-0.0098,-0.0116,-0.0157,-0.0115,-0.0115,-0.0036,-0.0026,-0.001,0.0056,0.0062,0.0044,0.0047,0.0049,0.005,0,0,0,0,0,0,0,-0.0281,-0.0276,-0.0233,-0.0235,-0.0228,-0.019,-0.0182,-0.0136,-0.0099,-0.0153,-0.0149,-0.0139,-0.0033,-0.0015,-0.0006,0.0064,0.0044,0.0048,0.0051,0.0053,0.0174,0.0175,0,0,0,0,0,0,-0.0298,-0.028,-0.0236,-0.023,-0.0251,-0.0189,-0.0181,-0.018,-0.01,-0.0088,-0.014,-0.0137,-0.0024,-0.0012,-0.0001,0.0036,0.0049,0.0053,0.0056,0.0174,0.0174,0.0175,0,0,0,0,0,0,-0.03,-0.0295,-0.024,-0.0253,-0.0243,-0.0189,-0.0188,-0.0178,-0.0158,-0.009,-0.0077,-0.0129,-0.0023,-0.0008,0.0042,0.0042,0.0056,0.006,0.0174,0.0174,0.0175,0.0106,0,0,0,0,0,0,-0.0302,-0.0297,-0.03,-0.0254,-0.0243,-0.0217,-0.0188,-0.0177,-0.0153,-0.0148,-0.0077,-0.0064,-0.0021,0.0035,0.0047,0.0049,0.0064,0.0174,0.0174,0.0175,0.0108,0.0104,0.0101,0,0,0,0,0,-0.0304,-0.031,-0.0301,-0.0295,-0.025,-0.0217,-0.0208,-0.0167,-0.0154,-0.0147,-0.0097,-0.0066,0.0046,0.0039,0.0054,0.0056,0.0173,0.0174,0.0174,0.011,0.0105,0.0101,0,0,0,0,0,0,-0.0336,-0.0304,-0.0292,-0.0289,-0.0258,-0.0207,-0.0197,-0.0172,-0.0128,-0.0123,-0.0061,-0.0044,-0.0001,0.0039,0.0029,0.0094,0.0114,0.0117,0.006,0.0056,0.0052,0.0036,0.0068,0,0,0,0,0,-0.0347,-0.0344,-0.0305,-0.0303,-0.0292,-0.0247,-0.0228,-0.0203,-0.0159,-0.014,-0.0088,-0.0034,0.0013,0.0041,0.0089,0.0126,0.0159,0.0137,0.0134,0.013,0.0128,0.0176,0.0176,0.0176,0.0176,0.0176,0,0,-0.0361,-0.0341,-0.0341,-0.031,-0.0284,-0.0271,-0.0234,-0.0212,-0.0197,-0.0131,-0.0093,-0.0045,0.0019,0.006,0.0082,0.0093,0.0146,0.0131,0.0127,0.0127,0.0177,0.0177,0.0176,0.0177,0.0177,0.0177,0,0,-0.0383,-0.037,-0.0373,-0.0354,-0.032,-0.0291,-0.0288,-0.0239,-0.0213,-0.0174,-0.0124,-0.0078,-0.0004,0.004,0.0071,0.0077,0.0123,0.0094,0.0066,0.0112,0.0112,0.0112,0.0143,0.0146,0.0094,0.0093,0.0093,0,-0.0399,-0.0402,-0.0368,-0.0365,-0.0354,-0.0305,-0.0306,-0.0272,-0.0212,-0.0188,-0.0171,-0.0063,-0.0015,0.0038,0.0038,0.0067,0.0098,0.0073,0.0105,0.0107,0.0108,0.014,0.0145,0.009,0.0091,0.0091,0.0091,0,-0.042,-0.0425,-0.0426,-0.0409,-0.039,-0.0384,-0.0339,-0.0313,-0.0278,-0.0237,-0.0179,-0.0111,-0.0048,-0.0026,0.0008,0.0047,0.0066,0.0091,0.011,0.0104,0.0137,0.0144,0.0086,0.0087,0.0088,0.0089,0,0,-0.0447,-0.0444,-0.0444,-0.045,-0.0416,-0.0402,-0.0381,-0.0341,-0.0319,-0.026,-0.0225,-0.0152,-0.0112,-0.0074,-0.0022,0.0019,0.005,0.0055,0.0059,0.0073,0.0144,0.0162,0.0172,0.0082,0.0083,0.0084,0.0158,0,-0.0474,-0.0493,-0.0475,-0.0488,-0.0496,-0.0453,-0.0434,-0.039,-0.034,-0.029,-0.022,-0.0167,-0.013,-0.0101,-0.0055,0.003,0.0066,0.0027,0.0159,0.0163,0.0171,0.018,0.0165,0.0231,0.0165,0.0166,0.0167,0,-0.0497,-0.0508,-0.0536,-0.0535,-0.0532,-0.0528,-0.0487,-0.0463,-0.0385,-0.0345,-0.0282,-0.0218,-0.0148,-0.0117,0.0007,-0.0018,0.0052,0.0114,0.0119,0.0165,0.0193,0.0231,0.0245,0.0178,0.0177,0.0176,0.0176,0,-0.0535,-0.0547,-0.0575,-0.0576,-0.0564,-0.0562,-0.0545,-0.0482,-0.0453,-0.0379,-0.0345,-0.0252,-0.0195,-0.0102,0.002,0.0017,0.016,0.0174,0.0253,0.0255,0.0284,0.0286,0.0257,0.0256,0.0256,0.0256,0.0256,0,-0.0573,-0.0592,-0.0599,-0.0616,-0.0633,-0.0606,-0.0598,-0.0562,-0.0502,-0.0458,-0.038,-0.0318,-0.0186,-0.0082,0.0013,0.0154,0.0155,0.025,0.028,0.0259,0.0258,0.0249,0.0247,0.0259,0.0258,0.0258,0.0257,0,-0.0612,-0.0621,-0.0652,-0.0657,-0.0657,-0.0668,-0.0642,-0.0625,-0.057,-0.051,-0.049,-0.0359,-0.0223,-0.0093,0.0075,0.0152,0.0277,0.0325,0.0282,0.0306,0.0338,0.0332,0.0415,0.0416,0.0417,0.0418,0.0419,0,-0.0633,-0.0658,-0.0685,-0.0701,-0.0708,-0.0715,-0.0711,-0.0666,-0.0636,-0.0523,-0.0491,-0.0352,-0.0226,0.0009,0.0162,0.0325,0.0325,0.0397,0.0389,0.0336,0.0357,0.0349,0.0341,0.0397,0.0397,0.0398,0.0398,0,-0.067,-0.0684,-0.0709,-0.0743,-0.0758,-0.0765,-0.0753,-0.0734,-0.066,-0.0593,-0.0466,-0.0358,-0.0132,0.0066,0.0261,0.0348,0.0366,0.0412,0.0388,0.0355,0.0324,0.0342,0.0335,0.0402,0.0402,0.0401,0.0401,0.0401,-0.0688,-0.0716,-0.0747,-0.0775,-0.0794,-0.0796,-0.0784,-0.0739,-0.0676,-0.0539,-0.0443,-0.026,-0.0089,0.0209,0.0331,0.0427,0.0433,0.0462,0.0458,0.0455,0.0435,0.0409,0.0498,0.0498,0.0498,0.0498,0.0498,0,-0.0701,-0.0732,-0.0767,-0.0801,-0.0819,-0.082,-0.0791,-0.0746,-0.0651,-0.0514,-0.0366,-0.0153,0.0062,0.0216,0.0387,0.0492,0.0466,0.0492,0.0448,0.0445,0.0441,0.0418,0.0478,0.0478,0.0478,0.0478,0,0,-0.0708,-0.0747,-0.0769,-0.0805,-0.0823,-0.0816,-0.079,-0.0703,-0.0597,-0.0432,-0.029,-0.0103,0.0085,0.0205,0.0331,0.041,0.0388,0.0402,0.0411,0.034,0.0335,0.0421,0.0383,0,0,0,0,0]}],[{"header":{"parameterUnit":"m.s-1","parameterCategory":2,"la1":30.2991,"la2":30.254,"lo1":-89.0895,"lo2":-89.0444,"dx":0.0017,"dy":0.0017,"nx":28,"ny":28,"refTime":"2022-11-05T21:00:00:Z","depth":"4","parameterNumber":2,"parameterNumberName":"U-component_of_CURRENTS"},"data":[0,0,0,0,0,0,0,0,0,0,0,0,0,0,0,0,0,0,0,0,0,0,0,0,0,0,0,0,0,0,0,0,0,0,0,0,0,0,0,0,0,0,0,0,0,0,0,0,0,0,0,0,0,0,0,0,0,0,-0.0959,-0.096,0,-0.1003,-0.1003,-0.1003,-0.1008,-0.1008,-0.1008,-0.1008,-0.1043,-0.1044,-0.1045,0,0,0,0,0,0,0,0,0,0,0,0,0,-0.0883,-0.0884,-0.0959,-0.096,-0.0961,-0.1003,-0.1003,-0.1003,-0.1008,-0.1008,-0.1008,-0.1008,-0.1043,-0.1044,-0.1045,0,0,0,0,0,0,0,0,0,0,0,0,0,-0.0915,-0.0884,-0.0959,-0.0972,-0.0974,-0.1003,-0.1003,-0.1003,-0.1008,-0.1008,-0.1008,-0.1008,-0.1043,-0.1044,-0.1046,-0.1054,0,0,-0.105,-0.105,0,0,0,0,0,0,0,0,-0.0914,-0.0918,-0.0969,-0.0971,-0.0973,-0.1004,-0.0989,-0.1021,-0.1008,-0.099,-0.1008,-0.1008,-0.1033,-0.1035,-0.1036,-0.1056,-0.1057,-0.105,-0.1051,-0.1051,-0.1052,0,0,0,0,0,0,0,-0.0911,-0.0916,-0.0971,-0.097,-0.0973,-0.0977,-0.0981,-0.0995,-0.1007,-0.0992,-0.0993,-0.1006,-0.1033,-0.1035,-0.1037,-0.1058,-0.105,-0.1051,-0.1052,-0.1053,-0.1118,-0.1118,0,0,0,0,0,0,-0.0915,-0.0914,-0.097,-0.0973,-0.0948,-0.0979,-0.0983,-0.099,-0.1007,-0.1011,-0.1006,-0.1006,-0.1033,-0.1036,-0.1039,-0.109,-0.1051,-0.1053,-0.1053,-0.1117,-0.1118,-0.1119,0,0,0,0,0,0,-0.0913,-0.092,-0.0968,-0.0948,-0.0956,-0.0981,-0.0988,-0.0991,-0.1015,-0.1019,-0.1022,-0.103,-0.1033,-0.1037,-0.1067,-0.109,-0.1053,-0.1055,-0.1116,-0.1117,-0.1118,-0.1167,0,0,0,0,0,0,-0.0911,-0.0918,-0.0926,-0.0949,-0.0957,-0.0996,-0.0989,-0.0992,-0.1024,-0.1025,-0.104,-0.1042,-0.1033,-0.1065,-0.1068,-0.1091,-0.1056,-0.1115,-0.1116,-0.1118,-0.1164,-0.117,-0.1175,0,0,0,0,0,-0.0908,-0.0924,-0.0925,-0.0933,-0.0965,-0.0997,-0.1001,-0.1016,-0.1025,-0.1037,-0.1049,-0.1042,-0.1077,-0.1067,-0.1071,-0.1095,-0.1114,-0.1116,-0.1118,-0.1162,-0.1169,-0.1175,0,0,0,0,0,0,-0.0897,-0.0927,-0.0929,-0.0953,-0.0977,-0.1,-0.1021,-0.1032,-0.1051,-0.1059,-0.1058,-0.1061,-0.1093,-0.1089,-0.1078,-0.1117,-0.1093,-0.1096,-0.1125,-0.1132,-0.1137,-0.1147,-0.1057,0,0,0,0,0,-0.0897,-0.0921,-0.0943,-0.0968,-0.0981,-0.1005,-0.1022,-0.1034,-0.1056,-0.1065,-0.1076,-0.1087,-0.1101,-0.1114,-0.112,-0.1149,-0.1139,-0.1165,-0.117,-0.1174,-0.1185,-0.1182,-0.1188,-0.1125,-0.1125,-0.1125,0,0,-0.09,-0.0925,-0.0936,-0.0968,-0.099,-0.1015,-0.1015,-0.1053,-0.1078,-0.1067,-0.1107,-0.1109,-0.1113,-0.1138,-0.1152,-0.1141,-0.1188,-0.1177,-0.1181,-0.1189,-0.1185,-0.1191,-0.1196,-0.1127,-0.1126,-0.1126,0,0,-0.0925,-0.0941,-0.0967,-0.0989,-0.1029,-0.1041,-0.1058,-0.1088,-0.1106,-0.1143,-0.1138,-0.1159,-0.1183,-0.1186,-0.1192,-0.1234,-0.1214,-0.1234,-0.1273,-0.127,-0.1275,-0.1279,-0.1277,-0.1281,-0.1238,-0.1238,-0.1238,0,-0.0929,-0.0962,-0.098,-0.1012,-0.1037,-0.1057,-0.1086,-0.1109,-0.1144,-0.1166,-0.1164,-0.1205,-0.1207,-0.1241,-0.1251,-0.1248,-0.1239,-0.1249,-0.1277,-0.1281,-0.1284,-0.1281,-0.1285,-0.1241,-0.124,-0.124,-0.124,0,-0.0968,-0.0997,-0.1022,-0.1063,-0.1084,-0.1122,-0.1148,-0.1178,-0.1204,-0.1223,-0.1269,-0.1271,-0.1296,-0.1297,-0.129,-0.132,-0.1303,-0.1282,-0.1261,-0.1294,-0.1288,-0.1291,-0.1244,-0.1243,-0.1243,-0.1242,0,0,-0.0976,-0.1035,-0.1046,-0.1069,-0.1116,-0.114,-0.1187,-0.123,-0.1272,-0.1299,-0.1345,-0.1369,-0.1372,-0.1379,-0.137,-0.137,-0.1388,-0.1341,-0.134,-0.1339,-0.1381,-0.1257,-0.1248,-0.1366,-0.1367,-0.1367,-0.1368,0,-0.1005,-0.1068,-0.1087,-0.1141,-0.1171,-0.12,-0.1242,-0.1283,-0.132,-0.1365,-0.1383,-0.1418,-0.1404,-0.1417,-0.1419,-0.1393,-0.1397,-0.139,-0.1349,-0.1349,-0.1234,-0.1247,-0.137,-0.137,-0.137,-0.1371,-0.1371,0,-0.1034,-0.1076,-0.1132,-0.1186,-0.1202,-0.1236,-0.1306,-0.1344,-0.1405,-0.1434,-0.1472,-0.148,-0.1501,-0.1474,-0.1467,-0.146,-0.1433,-0.1409,-0.1407,-0.1277,-0.1229,-0.1329,-0.1376,-0.1375,-0.1375,-0.1375,-0.1374,0,-0.1034,-0.1102,-0.115,-0.1171,-0.1236,-0.1272,-0.1308,-0.1373,-0.1403,-0.1476,-0.1495,-0.1534,-0.1535,-0.1524,-0.1471,-0.1476,-0.1437,-0.1436,-0.1306,-0.1297,-0.1389,-0.1384,-0.1432,-0.1432,-0.1432,-0.1432,-0.1432,0,-0.105,-0.1092,-0.116,-0.119,-0.1242,-0.1288,-0.1347,-0.1393,-0.1452,-0.1471,-0.1526,-0.1526,-0.1542,-0.1514,-0.1486,-0.1387,-0.1449,-0.1314,-0.1286,-0.1409,-0.1407,-0.1391,-0.1386,-0.1432,-0.1432,-0.1432,-0.1432,0,-0.1033,-0.1087,-0.1139,-0.1218,-0.1242,-0.1279,-0.1341,-0.1375,-0.1445,-0.1467,-0.1484,-0.1517,-0.1475,-0.1464,-0.1428,-0.1376,-0.1316,-0.1264,-0.1395,-0.1374,-0.1187,-0.1186,-0.115,-0.1145,-0.1141,-0.1138,-0.1135,0,-0.1027,-0.1056,-0.1139,-0.1158,-0.1195,-0.1253,-0.1282,-0.1361,-0.138,-0.1432,-0.142,-0.1415,-0.1415,-0.1268,-0.128,-0.1222,-0.1195,-0.1181,-0.1197,-0.1181,-0.1158,-0.1162,-0.1165,-0.1129,-0.1129,-0.1128,-0.1127,0,-0.0994,-0.1032,-0.1063,-0.1106,-0.1143,-0.1174,-0.1221,-0.1228,-0.1296,-0.1367,-0.131,-0.1277,-0.1218,-0.1181,-0.1124,-0.1088,-0.1206,-0.1142,-0.115,-0.1166,-0.1156,-0.1138,-0.1145,-0.1113,-0.1115,-0.1117,-0.1117,0,-0.0951,-0.0956,-0.0992,-0.1016,-0.1061,-0.1067,-0.1113,-0.1113,-0.1138,-0.1203,-0.1173,-0.1163,-0.1192,-0.1107,-0.1059,-0.1005,-0.1004,-0.0989,-0.1006,-0.1021,-0.0974,-0.0943,-0.0808,0,0,0,0,0,-0.089,-0.0873,-0.0891,-0.0907,-0.0953,-0.0972,-0.1045,-0.1093,-0.1166,-0.1089,-0.1128,-0.1065,-0.0992,-0.0995,-0.0909,-0.1008,-0.1013,-0.0908,-0.1009,-0.1041,-0.1056,-0.101,0,0,0,0,0,0,-0.0839,-0.0847,-0.0849,-0.0806,-0.0798,-0.0829,-0.0873,-0.0931,-0.09,-0.0976,-0.0934,-0.099,-0.0928,-0.0998,-0.0876,-0.0877,-0.0919,-0.0913,-0.091,-0.1032,-0.1046,-0.1058,-0.1016,0,0,0,0,0]},{"header":{"parameterUnit":"m.s-1","parameterCategory":2,"la1":30.2991,"la2":30.254,"lo1":-89.0895,"lo2":-89.0444,"dx":0.0017,"dy":0.0017,"nx":28,"ny":28,"refTime":"2022-11-05T21:00:00:Z","depth":"4","parameterNumber":3,"parameterNumberName":"V-component_of_CURRENTS"},"data":[0,0,0,0,0,0,0,0,0,0,0,0,0,0,0,0,0,0,0,0,0,0,0,0,0,0,0,0,0,0,0,0,0,0,0,0,0,0,0,0,0,0,0,0,0,0,0,0,0,0,0,0,0,0,0,0,0,0,-0.0202,-0.0201,0,-0.0165,-0.0164,-0.0164,-0.0138,-0.0138,-0.0138,-0.0138,-0.0076,-0.0074,-0.0073,0,0,0,0,0,0,0,0,0,0,0,0,0,-0.0198,-0.0199,-0.0202,-0.0201,-0.0201,-0.0165,-0.0164,-0.0164,-0.0138,-0.0138,-0.0138,-0.0138,-0.0076,-0.0075,-0.0073,0,0,0,0,0,0,0,0,0,0,0,0,0,-0.0184,-0.0199,-0.0202,-0.0184,-0.0182,-0.0165,-0.0164,-0.0164,-0.0138,-0.0138,-0.0138,-0.0138,-0.0077,-0.0075,-0.0073,-0.0065,0,0,-0.0066,-0.0065,0,0,0,0,0,0,0,0,-0.0185,-0.0185,-0.0187,-0.0185,-0.0183,-0.0156,-0.014,-0.0129,-0.0138,-0.0155,-0.0138,-0.0137,-0.01,-0.0096,-0.009,-0.0062,-0.0059,-0.0066,-0.0064,-0.0063,-0.0063,0,0,0,0,0,0,0,-0.0186,-0.0186,-0.0187,-0.0186,-0.0184,-0.016,-0.0158,-0.0138,-0.0129,-0.0153,-0.0151,-0.0147,-0.0099,-0.0093,-0.0089,-0.0058,-0.0066,-0.0064,-0.0062,-0.0062,-0.0021,-0.0021,0,0,0,0,0,0,-0.0194,-0.0187,-0.0188,-0.0186,-0.0183,-0.016,-0.0158,-0.0165,-0.013,-0.0125,-0.0148,-0.0146,-0.0096,-0.0091,-0.0086,-0.0073,-0.0063,-0.0061,-0.006,-0.002,-0.0021,-0.0021,0,0,0,0,0,0,-0.0194,-0.0195,-0.019,-0.0185,-0.0182,-0.0161,-0.0168,-0.0164,-0.0158,-0.0126,-0.012,-0.0146,-0.0096,-0.0089,-0.007,-0.007,-0.006,-0.0058,-0.002,-0.0021,-0.0021,-0.0046,0,0,0,0,0,0,-0.0195,-0.0196,-0.0201,-0.0186,-0.0183,-0.0186,-0.0168,-0.0164,-0.0156,-0.0154,-0.0123,-0.0117,-0.0095,-0.0074,-0.0068,-0.0067,-0.0057,-0.002,-0.002,-0.0021,-0.0045,-0.0048,-0.005,0,0,0,0,0,-0.0195,-0.0204,-0.0202,-0.0202,-0.0192,-0.0187,-0.0183,-0.0166,-0.0157,-0.0159,-0.0134,-0.0118,-0.0072,-0.0072,-0.0065,-0.0063,-0.002,-0.002,-0.0021,-0.0044,-0.0047,-0.005,0,0,0,0,0,0,-0.0203,-0.0202,-0.0199,-0.0207,-0.0201,-0.0182,-0.0181,-0.017,-0.0153,-0.015,-0.0118,-0.0111,-0.0095,-0.0078,-0.0078,-0.0054,-0.0044,-0.0043,-0.0065,-0.0067,-0.0069,-0.0077,-0.0055,0,0,0,0,0,-0.0209,-0.022,-0.0211,-0.0218,-0.0216,-0.02,-0.0194,-0.0186,-0.0169,-0.0162,-0.014,-0.0116,-0.0093,-0.0079,-0.0061,-0.0045,-0.0013,-0.0041,-0.0043,-0.0045,-0.0048,0.0014,0.0018,-0.0023,-0.0023,-0.0023,0,0,-0.0216,-0.0216,-0.0222,-0.0221,-0.0214,-0.0214,-0.0196,-0.0195,-0.019,-0.0157,-0.0145,-0.0125,-0.0092,-0.0076,-0.0067,-0.0059,-0.002,-0.0046,-0.0047,-0.0049,0.0014,0.0018,0.0022,-0.0023,-0.0023,-0.0023,0,0,-0.0231,-0.0234,-0.0246,-0.0244,-0.0239,-0.0228,-0.023,-0.0217,-0.0207,-0.0194,-0.0168,-0.0145,-0.0117,-0.0089,-0.0071,-0.0074,-0.0036,-0.0073,-0.0084,-0.0024,-0.002,-0.0016,0.0019,0.0027,-0.007,-0.007,-0.007,0,-0.0237,-0.0254,-0.0247,-0.0255,-0.0255,-0.0237,-0.0244,-0.023,-0.0212,-0.0199,-0.0196,-0.0142,-0.012,-0.0081,-0.0089,-0.0077,-0.0046,-0.0076,-0.0026,-0.0021,-0.0016,0.0019,0.0028,-0.0071,-0.0071,-0.0071,-0.0071,0,-0.0258,-0.0273,-0.028,-0.0286,-0.0281,-0.0289,-0.027,-0.0264,-0.0249,-0.0227,-0.0196,-0.0162,-0.0126,-0.0119,-0.0107,-0.0066,-0.0057,-0.0037,-0.0017,-0.0013,0.0023,0.0033,-0.0073,-0.0073,-0.0072,-0.0072,0,0,-0.0272,-0.0293,-0.0296,-0.0308,-0.0302,-0.0302,-0.0292,-0.0274,-0.026,-0.0235,-0.0205,-0.0173,-0.015,-0.0129,-0.0103,-0.006,-0.001,-0.0044,-0.004,-0.0006,0.0108,0.0083,0.0091,0.0023,0.0025,0.0026,0.0116,0,-0.0293,-0.0325,-0.032,-0.0342,-0.0357,-0.0337,-0.0327,-0.0305,-0.0277,-0.0244,-0.0193,-0.0163,-0.0152,-0.0138,-0.009,-0.0031,0.0015,-0.0038,0.0096,0.01,0.008,0.0101,0.0032,0.0124,0.0126,0.0127,0.0129,0,-0.0316,-0.0337,-0.037,-0.038,-0.0382,-0.0386,-0.0366,-0.0354,-0.0297,-0.0272,-0.0222,-0.018,-0.0121,-0.011,0.0007,-0.0027,0.0032,0.0081,0.0086,0.0079,0.0093,0.0122,0.0146,0.0145,0.0144,0.0143,0.0141,0,-0.0342,-0.0367,-0.0399,-0.0406,-0.0411,-0.0415,-0.0409,-0.0368,-0.0352,-0.029,-0.0265,-0.018,-0.0137,-0.0047,0.0036,0.0029,0.017,0.0182,0.0219,0.0218,0.0225,0.022,0.0275,0.0275,0.0275,0.0275,0.0274,0,-0.037,-0.0396,-0.042,-0.0441,-0.0465,-0.0451,-0.0454,-0.0431,-0.0385,-0.0352,-0.0287,-0.0236,-0.0118,-0.0028,0.0049,0.0157,0.0188,0.022,0.0245,0.0209,0.0201,0.0231,0.0225,0.0278,0.0277,0.0277,0.0276,0,-0.04,-0.0419,-0.0459,-0.048,-0.0487,-0.0505,-0.0499,-0.0489,-0.0447,-0.0398,-0.0381,-0.0268,-0.015,-0.0038,0.0116,0.0168,0.0274,0.0306,0.0243,0.0264,0.0278,0.0269,0.0363,0.0363,0.0363,0.0363,0.0363,0,-0.0419,-0.0447,-0.0494,-0.0518,-0.0534,-0.0555,-0.0561,-0.0529,-0.0506,-0.0412,-0.0381,-0.0265,-0.0181,0.0023,0.0129,0.0281,0.0297,0.0341,0.0318,0.0274,0.0291,0.0282,0.0273,0.0363,0.0363,0.0363,0.0363,0,-0.0451,-0.0474,-0.0505,-0.0557,-0.0583,-0.0602,-0.0602,-0.0585,-0.0524,-0.0492,-0.0361,-0.0249,-0.0111,0.0034,0.0145,0.0253,0.0305,0.0342,0.0342,0.0321,0.0275,0.0289,0.0281,0.0363,0.0363,0.0363,0.0363,0,-0.0468,-0.0499,-0.0541,-0.0579,-0.0618,-0.0625,-0.0625,-0.0573,-0.054,-0.0424,-0.038,-0.0226,-0.0131,0.0021,0.0127,0.0222,0.0245,0.0265,0.027,0.0271,0.0206,0.0133,0.0205,0,0,0,0,0,-0.0476,-0.0507,-0.0551,-0.0594,-0.0632,-0.0647,-0.0635,-0.0617,-0.0556,-0.0465,-0.0415,-0.0282,-0.0097,-0.0013,0.0082,0.0105,0.0238,0.0215,0.0258,0.0363,0.0363,0.0299,0,0,0,0,0,0,-0.0482,-0.0528,-0.0551,-0.0594,-0.062,-0.065,-0.064,-0.0601,-0.0536,-0.0461,-0.0356,-0.0285,-0.0107,-0.0154,0.0075,0.0105,0.0139,0.0305,0.0306,0.0363,0.0363,0.0363,0.0297,0,0,0,0,0]}]]